1497546001.2,49807,21.06,74172.5,5.81,-3.15,-4.45,0,*71
1497546002.41,49808,21.06,74174.5,5.79,-3.47,-4.57,0,*7D
1497546003.63,49809,21.06,74176.0,5.79,-3.87,-4.69,0,*7D
1497546004.86,49810,21.06,74174.3,5.81,-4.13,-4.81,0,*7E
1497546006.09,49811,21.06,74172.5,5.81,-4.45,-4.81,0,*7C
1497546007.29,49812,21.06,74172.0,5.79,-4.77,-4.65,0,*73
1497546008.52,49813,21.06,74174.5,5.81,-4.81,-4.45,0,*7E
1497546009.72,49814,21.06,74174.3,5.79,-4.93,-4.29,0,*77
1497546010.95,49815,21.06,74172.5,5.81,-4.89,-3.87,0,*79
1497546012.16,49816,21.06,74172.0,5.79,-4.93,-3.55,0,*79
1497546013.34,49817,21.06,74174.0,5.79,-4.65,-3.11,0,*71
1497546014.56,49818,21.06,74174.3,5.79,-4.33,-2.67,0,*7D
1497546015.8,49819,21.13,74176.8,5.77,-4.29,-2.63,0,*7D
1497546017.03,49820,21.06,74172.5,5.77,-4.29,-2.55,0,*72
1497546018.21,49821,21.06,74174.0,5.79,-4.13,-2.27,0,*71
1497546019.39,49822,21.06,74174.3,5.79,-4.17,-2.27,0,*76
1497546020.57,49823,21.06,74174.8,5.79,-4.13,-2.27,0,*73
1497546021.78,49824,21.06,74178.5,5.81,-4.13,-2.39,0,*7C
1497546023.03,49825,21.06,74178.8,5.79,-4.01,-2.47,0,*70
1497546024.24,49826,21.06,74174.3,5.79,-3.63,-2.27,0,*76
1497546025.45,49827,21.06,74176.0,5.79,-3.63,-2.39,0,*78
1497546026.69,49828,21.06,74174.8,5.79,-3.63,-2.47,0,*7E
1497546027.95,49829,21.06,74172.8,5.77,-3.55,-2.51,0,*73
1497546029.19,49830,21.06,74174.5,5.77,-3.39,-2.51,0,*71
1497546030.43,49831,21.06,74172.5,5.77,-3.31,-2.63,0,*79
1497546031.66,49832,21.06,74174.8,5.77,-3.43,-2.91,0,*72
1497546032.84,49833,21.06,74178.3,5.79,-3.23,-2.79,0,*7D
1497546034.02,49834,21.06,74176.0,5.79,-3.27,-2.91,0,*78
1497546035.25,49835,21.06,74178.5,5.77,-3.51,-3.39,0,*75
1497546036.47,49836,21.06,74170.5,5.77,-3.91,-3.79,0,*7E
1497546037.69,49837,21.06,74176.0,5.77,-4.21,-3.91,0,*75
1497546038.89,49838,21.06,74176.8,5.77,-4.57,-4.17,0,*72
1497546040.11,49839,21.06,74174.8,5.77,-4.69,-4.09,0,*71
1497546041.34,49840,21.06,74178.0,5.77,-4.73,-4.05,0,*78
1497546042.55,49841,21.06,74174.0,5.75,-5.15,-4.33,0,*7F
1497546043.76,49842,21.06,74176.8,5.75,-5.77,-4.61,0,*7F
1497546045.0,49843,21.06,74178.5,5.73,-6.09,-4.73,0,*71
1497546046.24,49844,21.06,74172.5,5.73,-6.81,-5.03,0,*70
1497546047.48,49845,21.06,74174.8,5.73,-7.23,-4.85,0,*77
1497546048.74,49846,21.06,74174.3,5.73,-8.07,-4.89,0,*71
1497546049.98,49847,21.06,74172.0,5.71,-8.81,-5.03,0,*7F
1497546051.19,49848,21.06,74172.3,5.71,-9.05,-4.69,0,*70
1497546052.37,49849,21.06,74174.3,5.71,-8.67,-4.05,0,*7E
1497546053.57,49850,21.06,74172.0,5.67,-8.81,-3.83,0,*70
1497546054.78,49851,21.06,74174.5,5.69,-8.21,-3.11,0,*7E
1497546055.96,49852,21.06,74172.3,5.67,-7.87,-2.79,0,*7F
1497546057.2,49853,21.06,74172.0,5.67,-7.57,-2.63,0,*78
1497546058.41,49854,21.06,74172.0,5.67,-7.05,-2.15,0,*79
1497546059.62,49855,21.06,74176.0,5.67,-6.63,-1.67,0,*7F
1497546060.83,49856,21.06,74170.3,5.69,-6.51,-1.51,0,*76
1497546062.05,49857,21.06,74172.8,5.67,-6.51,-1.39,0,*77
1497546063.26,49858,21.06,74174.0,5.67,-6.51,-1.13,0,*70
1497546064.47,49859,21.06,74174.3,5.67,-6.19,-0.77,0,*4E
1497546065.64,49860,21.06,74174.5,5.67,-6.13,-0.65,0,*4D
1497546066.88,49861,21.06,74176.3,5.69,-5.93,-0.49,0,*47
1497546068.06,49862,21.06,74174.5,5.67,-5.97,-0.49,0,*4E
1497546069.24,49863,21.06,74176.8,5.67,-5.97,-0.65,0,*41
1497546070.44,49864,21.06,74174.3,5.67,-5.47,-0.27,0,*4D
1497546071.66,49865,21.06,74174.3,5.67,-5.23,-0.19,0,*43
1497546072.85,49866,21.06,74178.8,5.67,-4.93,0.05,0,*5A
1497546074.04,49867,21.06,74172.5,5.67,-4.69,0.09,0,*52
1497546075.23,49868,21.06,74174.5,5.67,-4.41,0.37,0,*6A
1497546076.43,49869,21.06,74172.3,5.67,-4.73,0.09,0,*57
1497546077.62,49870,21.06,74174.3,5.63,-4.45,0.41,0,*62
1497546078.81,49871,21.06,74172.5,5.63,-4.49,0.25,0,*6D
1497546080.01,49872,21.06,74174.3,5.63,-3.95,0.63,0,*6A
1497546081.24,49873,21.06,74172.5,5.67,-3.63,0.91,0,*6B
1497546082.47,49874,21.06,74174.8,5.67,-3.51,0.83,0,*6E
1497546083.69,49875,21.06,74172.5,5.67,-3.43,0.71,0,*61
1497546084.89,49876,21.06,74172.8,5.67,-3.39,0.71,0,*6F
1497546086.1,49877,21.06,74168.5,5.63,-3.07,0.75,0,*63
1497546087.29,49878,21.06,74172.8,5.63,-2.83,0.75,0,*61
1497546088.51,49879,21.06,74164.5,5.61,-2.79,0.63,0,*60
1497546089.71,49880,21.06,74174.3,5.63,-2.31,0.75,0,*6F
1497546090.96,49881,21.06,74170.3,5.61,-1.95,0.91,0,*6B
1497546092.14,49882,21.06,74170.3,5.63,-1.55,1.01,0,*5E
1497546093.36,49883,21.06,74170.8,5.61,-1.43,0.97,0,*64
1497546094.6,49884,21.06,74172.5,5.61,-0.85,1.25,0,*60
1497546095.82,49885,21.06,74168.3,5.61,-0.69,1.17,0,*62
1497546097.0,49886,21.06,74172.5,5.61,-0.29,1.41,0,*66
1497546098.22,49887,21.06,74170.0,5.63,-0.23,1.29,0,*61
1497546099.42,49888,21.06,74170.0,5.61,-0.41,1.01,0,*62
1497546100.61,49889,21.06,74168.8,5.61,-0.33,0.97,0,*58
1497546101.81,49890,21.06,74166.3,5.61,0.01,1.09,0,*7A
1497546103.05,49891,21.06,74168.5,5.61,0.13,1.29,0,*4A
1497546104.27,49892,21.06,74168.3,5.61,0.63,1.47,0,*46
1497546105.5,49893,21.06,74170.0,5.61,0.67,1.51,0,*44
1497546106.72,49894,21.06,74164.8,5.63,0.41,1.13,0,*43
1497546107.95,49895,21.06,74170.8,5.61,0.17,0.91,0,*78
1497546109.18,49896,21.06,74168.8,5.61,0.63,1.29,0,*4A
1497546110.42,49897,21.06,74172.0,5.61,0.79,1.29,0,*40
1497546111.63,49898,21.06,74166.5,5.63,0.75,1.25,0,*4D
1497546112.85,49899,21.06,74166.5,5.63,0.79,1.17,0,*41
1497546114.08,49900,21.06,74166.8,5.61,0.67,0.91,0,*72
1497546115.3,49901,21.06,74170.5,5.61,0.97,1.25,0,*42
1497546116.51,49902,21.06,74164.3,5.63,0.75,0.91,0,*71
1497546117.73,49903,21.06,74164.0,5.61,0.87,1.01,0,*47
1497546118.98,49904,21.06,74168.5,5.61,1.13,1.29,0,*76
1497546120.23,49905,21.06,74164.5,5.61,0.91,1.09,0,*4E
1497546121.44,49906,21.06,74164.5,5.63,0.75,0.91,0,*75
1497546122.68,49907,21.06,74166.3,5.61,0.75,0.87,0,*71
1497546123.93,49908,21.06,74166.8,5.61,1.13,1.17,0,*77
1497546125.18,49909,21.06,74172.5,5.61,1.13,1.17,0,*76
1497546126.43,49910,21.06,74168.0,5.61,1.17,1.25,0,*7B
1497546127.65,49911,21.06,74168.3,5.63,1.25,1.25,0,*79
1497546128.9,49912,21.06,74170.3,5.61,1.25,1.25,0,*78
1497546130.07,49913,21.06,74168.5,5.63,1.01,1.01,0,*7B
1497546131.29,49914,21.06,74166.5,5.63,0.87,0.87,0,*7C
1497546132.53,49915,21.06,74168.8,5.61,0.87,0.91,0,*78
1497546133.75,49916,21.06,74170.0,5.61,1.37,1.41,0,*7D
1497546134.99,49917,21.06,74168.5,5.61,1.59,1.59,0,*7D
1497546136.21,49918,21.06,74170.0,5.63,1.59,1.71,0,*7A
1497546137.42,49919,21.06,74172.0,5.61,1.41,1.47,0,*75
1497546138.65,49920,21.06,74170.5,5.63,1.37,1.37,0,*7B
1497546139.88,49921,21.06,74172.0,5.63,1.25,1.25,0,*7A
1497546141.05,49922,21.06,74168.3,5.63,1.01,1.01,0,*79
1497546142.25,49923,21.06,74172.0,5.63,1.01,1.09,0,*70
1497546143.47,49924,21.06,74170.8,5.61,0.91,1.01,0,*45
1497546144.66,49925,21.06,74168.3,5.63,1.01,1.17,0,*79
1497546145.88,49926,21.06,74170.8,5.61,1.01,1.29,0,*75
1497546147.11,49927,21.06,74170.3,5.63,1.25,1.51,0,*7F
1497546148.33,49928,21.06,74170.0,5.63,1.17,1.47,0,*76
1497546149.54,49929,21.06,74170.5,5.63,1.37,1.75,0,*74
1497546150.74,49930,21.06,74166.8,5.67,1.33,1.79,0,*70
1497546151.95,49931,21.06,74168.3,5.67,1.29,1.75,0,*76
1497546153.18,49932,21.06,74168.5,5.69,1.43,1.89,0,*74
1497546154.43,49933,21.06,74164.8,5.69,1.43,2.05,0,*72
1497546155.62,49934,21.06,74168.3,5.67,1.41,2.01,0,*7D
1497546156.84,49935,21.06,74168.3,5.71,1.43,1.97,0,*75
1497546158.09,49936,21.06,74168.5,5.69,1.37,2.05,0,*74
1497546159.31,49937,21.06,74168.5,5.71,1.43,2.09,0,*73
1497546160.56,49938,21.06,74166.8,5.69,1.37,1.97,0,*72
1497546161.78,49939,21.06,74166.8,5.71,1.47,2.17,0,*76
1497546163.0,49940,21.06,74166.0,5.71,1.63,2.25,0,*7F
1497546164.24,49941,21.06,74166.5,5.73,1.51,2.25,0,*7D
1497546165.47,49942,21.06,74162.0,5.71,1.55,2.17,0,*79
1497546166.71,49943,21.06,74164.5,5.73,1.59,2.25,0,*77
1497546167.96,49944,21.06,74164.5,5.73,1.63,2.25,0,*79
1497546169.2,49945,21.06,74166.0,5.73,1.71,2.25,0,*7B
1497546170.45,49946,21.06,74162.8,5.73,1.63,2.25,0,*7B
1497546171.67,49947,21.06,74160.5,5.73,1.83,2.43,0,*74
1497546172.9,49948,21.06,74162.5,5.73,1.85,2.35,0,*7C
1497546174.12,49949,21.06,74158.5,5.73,1.85,2.35,0,*7D
1497546175.31,49950,21.06,74162.8,5.75,1.83,2.25,0,*74
1497546176.56,49951,21.06,74162.0,5.77,1.67,2.13,0,*78
1497546177.75,49952,21.06,74158.3,5.75,1.83,2.21,0,*72
1497546178.97,49953,21.06,74162.5,5.77,1.75,2.01,0,*7A
1497546180.2,49954,21.06,74160.5,5.75,1.59,1.85,0,*7E
1497546181.39,49955,21.06,74160.8,5.75,1.59,1.83,0,*79
1497546182.59,49956,21.06,74160.3,5.75,1.83,2.09,0,*7C
1497546183.8,49957,21.06,74162.3,5.75,1.59,1.93,0,*7A
1497546185.02,49958,21.06,74164.0,5.73,1.83,1.97,0,*70
1497546186.21,49959,21.06,74166.8,5.71,1.59,1.79,0,*74
1497546187.4,49960,21.06,74166.5,5.71,1.79,1.93,0,*78
1497546188.62,49961,21.06,74166.3,5.73,1.83,1.97,0,*7A
1497546189.85,49962,21.06,74166.5,5.71,1.97,2.17,0,*75
1497546191.09,49963,21.06,74170.5,5.73,2.09,2.21,0,*77
1497546192.33,49964,21.06,74170.0,5.73,2.13,2.21,0,*7B
1497546193.58,49965,21.06,74170.5,5.73,2.09,2.13,0,*70
1497546194.8,49966,21.06,74168.3,5.73,1.93,1.83,0,*79
1497546196.02,49967,21.06,74168.0,5.71,1.97,1.97,0,*7B
1497546197.26,49968,21.06,74170.5,5.73,1.93,1.85,0,*71
1497546198.45,49969,21.06,74168.5,5.71,1.83,1.55,0,*7E
1497546199.64,49970,21.06,74168.5,5.71,1.43,0.97,0,*45
1497546200.83,49971,21.06,74170.3,5.73,1.75,1.01,0,*7D
1497546202.05,49972,21.06,74172.5,5.71,1.47,0.51,0,*49
1497546203.27,49973,21.06,74172.0,5.71,1.37,0.13,0,*49
1497546204.46,49974,21.06,74170.0,5.71,1.43,0.01,0,*7E
1497546205.66,49975,21.06,74168.3,5.67,1.21,-0.03,0,*53
1497546206.87,49976,21.06,74164.8,5.69,1.47,0.01,0,*71
1497546208.07,49977,21.06,74162.0,5.67,1.43,-0.19,0,*6E
1497546209.28,49978,21.06,74166.0,5.67,1.21,-0.45,0,*6C
1497546210.47,49979,21.06,74166.0,5.67,0.95,-0.81,0,*5B
1497546211.65,49980,21.06,74170.3,5.67,1.01,-0.77,0,*68
1497546212.87,49981,21.06,74164.8,5.61,0.67,-1.21,0,*6C
1497546214.06,49982,21.06,74170.8,5.63,0.17,-1.71,0,*6F
1497546215.25,49983,21.06,74168.5,5.61,0.43,-1.79,0,*65
1497546216.44,49984,21.06,74168.5,5.61,0.43,-2.19,0,*67
1497546217.64,49985,21.06,74166.5,5.59,0.21,-2.91,0,*69
1497546218.84,49986,21.06,74170.3,5.59,-0.27,-3.87,0,*47
1497546220.04,49987,21.06,74170.0,5.57,-0.65,-4.49,0,*4B
1497546221.28,49988,21.06,74168.0,5.59,-1.01,-4.77,0,*74
1497546222.55,49989,21.06,74166.0,5.57,-1.35,-5.03,0,*7E
1497546223.79,49990,21.06,74170.0,5.57,-1.47,-4.65,0,*72
1497546225.03,49991,21.06,74172.5,5.57,-1.39,-4.25,0,*7E
1497546226.28,49992,21.06,74172.0,5.57,-1.35,-3.71,0,*77
1497546227.55,49993,21.06,74162.3,5.57,-1.39,-3.59,0,*70
1497546228.76,49994,21.06,74162.5,5.57,-1.63,-3.79,0,*7A
1497546229.93,49995,21.06,74158.0,5.53,-2.19,-4.17,0,*7E
1497546231.14,49996,21.06,74156.3,5.57,-2.39,-4.05,0,*78
1497546232.34,49997,21.06,74154.5,5.53,-2.55,-4.09,0,*7B
1497546233.55,49998,21.06,74154.3,5.53,-2.75,-3.95,0,*74
1497546234.76,49999,21.06,74154.8,5.59,-2.63,-3.35,0,*72
1497546235.94,50000,21.06,74158.3,5.53,-2.39,-3.07,0,*77
1497546237.12,50001,21.06,74158.0,5.53,-3.15,-3.75,0,*7C
1497546238.36,50002,21.06,74158.0,5.57,-3.71,-3.91,0,*73
1497546239.54,50003,21.06,74158.0,5.53,-3.31,-3.15,0,*7E
1497546240.78,50004,21.06,74156.0,5.51,-3.07,-2.67,0,*7A
1497546242.02,50005,21.06,74160.3,5.53,-2.63,-2.03,0,*78
1497546243.26,50006,21.06,74158.0,5.53,-2.51,-1.99,0,*7A
1497546244.46,50007,21.06,74156.8,5.53,-2.51,-1.75,0,*79
1497546245.71,50008,21.06,74160.3,5.51,-2.07,-1.21,0,*76
1497546246.91,50009,21.06,74152.5,5.51,-1.59,-0.81,0,*44
1497546248.11,50010,21.06,74156.5,5.51,-1.59,-0.69,0,*4A
1497546249.34,50011,21.06,74152.8,5.51,-1.91,-0.81,0,*49
1497546250.52,50012,21.06,74154.5,5.49,-1.63,-0.45,0,*46
1497546251.74,50013,21.06,74152.0,5.45,-1.13,0.25,0,*67
1497546252.9,50014,21.06,74154.3,5.49,-0.37,0.97,0,*52
1497546254.1,50015,21.06,74152.3,5.49,-0.15,1.13,0,*6E
1497546255.3,50016,21.06,74154.8,5.49,0.29,1.47,0,*4E
1497546256.52,50017,21.06,74154.0,5.49,0.41,1.37,0,*46
1497546257.73,50018,21.06,74152.3,5.49,0.63,1.55,0,*4D
1497546258.94,50019,21.06,74152.8,5.49,0.47,1.09,0,*43
1497546260.16,50020,21.06,74152.3,5.49,0.87,1.37,0,*48
1497546261.38,50021,21.06,74154.0,5.49,0.87,1.37,0,*49
1497546262.59,50022,21.06,74156.0,5.49,1.33,1.75,0,*72
1497546263.81,50023,21.06,74158.5,5.49,1.33,1.67,0,*70
1497546265.04,50024,21.06,74160.3,5.51,1.47,1.79,0,*72
1497546266.29,50025,21.06,74158.5,5.51,1.71,1.85,0,*75
1497546267.52,50026,21.06,74158.8,5.51,1.63,1.79,0,*76
1497546268.69,50027,21.06,74156.0,5.53,1.79,1.79,0,*7E
1497546269.92,50028,21.06,74158.5,5.53,1.85,2.01,0,*7E
1497546271.16,50029,21.06,74156.0,5.51,1.89,1.89,0,*72
1497546272.37,50030,21.06,74162.5,5.53,1.93,1.89,0,*73
1497546273.62,50031,21.06,74160.0,5.51,1.89,1.85,0,*77
1497546274.85,50032,21.06,74160.8,5.51,1.85,1.79,0,*7B
1497546276.08,50033,21.06,74160.0,5.51,1.85,1.79,0,*7A
1497546277.25,50034,21.06,74164.8,5.53,1.79,1.79,0,*7C
1497546278.5,50035,21.06,74166.0,5.51,1.97,1.89,0,*70
1497546279.74,50036,21.06,74162.0,5.51,2.01,1.97,0,*70
1497546280.99,50037,21.06,74166.0,5.51,2.13,2.01,0,*7E
1497546282.24,50038,21.06,74166.8,5.51,2.21,2.01,0,*70
1497546283.49,50039,21.06,74166.8,5.51,2.13,2.01,0,*70
1497546284.74,50040,21.06,74166.3,5.51,2.25,2.09,0,*73
1497546285.94,50041,21.06,74166.8,5.53,2.27,2.17,0,*7D
1497546287.19,50042,21.06,74166.8,5.51,2.25,2.01,0,*79
1497546288.41,50043,21.06,74164.0,5.53,2.47,2.17,0,*79
1497546289.64,50044,21.06,74166.0,5.53,2.47,2.13,0,*7A
1497546290.83,50045,21.06,74168.5,5.53,2.35,2.05,0,*79
1497546292.03,50046,21.06,74170.5,5.53,2.13,1.75,0,*7A
1497546293.27,50047,21.06,74166.5,5.51,1.89,1.47,0,*78
1497546294.51,50048,21.06,74168.5,5.51,2.09,1.71,0,*79
1497546295.76,50049,21.06,74168.0,5.51,2.09,1.59,0,*72
1497546297.01,50050,21.06,74170.3,5.51,2.13,1.63,0,*78
1497546298.18,50051,21.06,74168.0,5.53,2.27,1.75,0,*7B
1497546299.39,50052,21.06,74166.8,5.53,2.25,1.67,0,*79
1497546300.58,50053,21.06,74170.5,5.53,1.93,1.41,0,*72
1497546301.8,50054,21.06,74168.5,5.53,1.89,1.29,0,*70
1497546303.05,50055,21.06,74168.8,5.51,2.01,1.29,0,*70
1497546304.26,50056,21.06,74170.5,5.53,2.05,1.29,0,*75
1497546305.48,50057,21.06,74170.3,5.53,2.05,1.17,0,*79
1497546306.7,50058,21.06,74166.8,5.57,1.97,0.97,0,*43
1497546307.95,50059,21.06,74168.5,5.51,1.89,0.75,0,*47
1497546309.16,50060,21.06,74170.0,5.53,1.85,0.63,0,*44
1497546310.36,50061,21.06,74170.0,5.53,1.83,0.59,0,*4A
1497546311.57,50062,21.06,74166.0,5.53,1.89,0.59,0,*43
1497546312.77,50063,21.06,74166.8,5.53,1.75,0.47,0,*4E
1497546313.96,50064,21.06,74168.3,5.53,1.67,0.43,0,*4E
1497546315.21,50065,21.06,74170.5,5.57,1.37,0.13,0,*4B
1497546316.45,50066,21.06,74168.5,5.57,1.47,0.29,0,*46
1497546317.7,50067,21.06,74164.0,5.57,1.37,0.25,0,*4C
1497546318.95,50068,21.06,74168.8,5.57,1.33,0.25,0,*47
1497546320.2,50069,21.06,74168.0,5.57,1.25,0.13,0,*44
1497546321.43,50070,21.06,74168.3,5.57,1.21,-0.03,0,*54
1497546322.66,50071,21.06,74170.8,5.57,1.21,-0.03,0,*55
1497546323.86,50072,21.06,74168.5,5.59,0.87,-0.61,0,*51
1497546325.1,50073,21.06,74172.0,5.57,0.83,-0.89,0,*5C
1497546326.3,50074,21.06,74168.5,5.59,0.37,-1.51,0,*6E
1497546327.52,50075,21.06,74168.8,5.57,0.41,-1.63,0,*61
1497546328.74,50076,21.06,74168.8,5.57,0.75,-1.59,0,*6C
1497546329.96,50077,21.06,74170.8,5.57,0.47,-2.27,0,*66
1497546331.21,50078,21.06,74166.5,5.57,0.13,-2.51,0,*69
1497546332.41,50079,21.06,74166.8,5.57,-0.03,-2.83,0,*7B
1497546333.61,50080,21.06,74170.0,5.53,-0.15,-2.75,0,*47
1497546334.84,50081,21.06,74170.0,5.53,-0.27,-2.75,0,*47
1497546336.07,50082,21.06,74164.8,5.57,-0.33,-2.63,0,*42
1497546337.3,50083,21.06,74164.5,5.57,-0.27,-2.35,0,*45
1497546338.53,50084,21.06,74166.8,5.57,-0.49,-2.47,0,*4F
1497546339.77,50085,21.06,74166.8,5.57,-0.65,-2.51,0,*47
1497546340.97,50086,21.06,74164.5,5.57,-0.61,-2.27,0,*41
1497546342.17,50087,21.06,74166.8,5.57,-0.65,-2.15,0,*45
1497546343.41,50088,21.06,74166.5,5.57,-0.65,-1.99,0,*4D
1497546344.64,50089,21.06,74166.8,5.57,-0.89,-2.23,0,*4C
1497546345.86,50090,21.06,74164.5,5.59,-1.09,-2.35,0,*74
1497546347.1,50091,21.06,74166.0,5.57,-1.01,-2.23,0,*74
1497546348.33,50092,21.06,74164.0,5.59,-0.97,-1.87,0,*4A
1497546349.59,50093,21.0,74160.3,5.57,-1.09,-1.87,0,*73
1497546350.83,50094,21.06,74164.5,5.57,-1.25,-1.83,0,*7E
1497546352.04,50095,21.06,74166.0,5.59,-1.09,-1.63,0,*71
1497546353.24,50096,21.06,74166.3,5.59,-0.89,-1.25,0,*49
1497546354.45,50097,21.06,74164.5,5.59,-0.73,-1.13,0,*48
1497546355.63,50098,21.06,74164.8,5.59,-0.65,-1.21,0,*41
1497546356.84,50099,21.06,74166.8,5.59,-0.65,-1.13,0,*41
1497546358.02,50100,21.06,74164.3,5.59,-0.73,-1.25,0,*42
1497546359.23,50101,21.06,74166.8,5.63,-0.73,-1.43,0,*4A
1497546360.46,50102,21.06,74170.0,5.61,-1.21,-1.95,0,*76
1497546361.64,50103,21.06,74166.0,5.63,-1.67,-2.43,0,*7F
1497546362.85,50104,21.06,74168.0,5.63,-2.59,-2.99,0,*71
1497546364.06,50105,21.06,74166.8,5.61,-3.35,-3.75,0,*7A
1497546365.27,50106,21.06,74164.0,5.63,-3.43,-3.35,0,*7E
1497546366.5,50107,21.06,74166.3,5.61,-3.59,-3.23,0,*71
1497546367.71,50108,21.06,74168.8,5.61,-3.83,-3.19,0,*70
1497546368.91,50109,21.06,74166.8,5.63,-4.37,-3.47,0,*70
1497546370.1,50110,21.06,74168.0,5.61,-4.45,-3.23,0,*7D
1497546371.3,50111,21.06,74166.8,5.61,-4.37,-2.95,0,*75
1497546372.5,50112,21.06,74164.0,5.61,-4.37,-2.79,0,*74
1497546373.71,50113,21.06,74166.8,5.59,-4.37,-2.59,0,*7C
1497546374.92,50114,21.06,74166.0,5.57,-4.05,-2.35,0,*7E
1497546376.19,50115,21.06,74164.5,5.61,-3.71,-2.07,0,*7F
1497546377.4,50116,21.06,74164.5,5.61,-3.31,-1.67,0,*7D
1497546378.61,50117,21.06,74166.0,5.61,-3.23,-1.67,0,*7F
1497546379.85,50118,21.06,74164.8,5.61,-2.95,-1.47,0,*7E
1497546381.11,50119,21.06,74164.0,5.61,-2.67,-1.35,0,*77
1497546382.34,50120,21.06,74166.5,5.63,-2.59,-1.47,0,*77
1497546383.57,50121,21.06,74166.8,5.63,-2.67,-1.47,0,*7B
1497546384.81,50122,21.06,74166.0,5.67,-2.63,-1.39,0,*71
1497546386.05,50123,21.06,74162.8,5.67,-2.63,-1.39,0,*70
1497546387.28,50124,21.06,74168.3,5.69,-2.75,-1.25,0,*73
1497546388.51,50125,21.06,74166.8,5.69,-2.91,-1.39,0,*75
1497546389.69,50126,21.06,74164.0,5.71,-3.15,-1.51,0,*7C
1497546390.88,50127,21.06,74166.3,5.71,-3.03,-1.21,0,*7D
1497546392.09,50128,21.06,74166.3,5.71,-3.47,-1.51,0,*75
1497546393.3,50129,21.06,74164.0,5.73,-3.11,-1.21,0,*72
1497546394.5,50130,21.0,74164.3,5.71,-2.87,-0.85,0,*49
1497546395.7,50131,21.06,74164.8,5.73,-2.87,-0.73,0,*43
1497546396.93,50132,21.06,74166.5,5.73,-3.23,-1.05,0,*7F
1497546398.17,50133,21.06,74174.0,5.73,-4.21,-1.91,0,*76
1497546399.38,50134,21.06,74168.8,5.71,-3.87,-1.39,0,*7A
1497546400.61,50135,21.06,74170.8,5.71,-3.51,-1.01,0,*7B
1497546401.88,50136,21.06,74170.5,5.73,-3.59,-1.35,0,*75
1497546403.08,50137,21.06,74168.5,5.71,-4.13,-1.39,0,*73
1497546404.27,50138,21.06,74166.0,5.71,-3.91,-1.25,0,*7C
1497546405.47,50139,21.06,74164.8,5.69,-3.39,-0.65,0,*43
1497546406.72,50140,21.06,74168.3,5.69,-3.51,-0.85,0,*4D
1497546407.96,50141,21.06,74164.8,5.67,-3.67,-1.01,0,*7A
1497546409.14,50142,21.06,74166.8,5.67,-3.15,-0.53,0,*4A
1497546410.34,50143,21.06,74168.0,5.67,-2.75,-0.07,0,*7D
1497546411.54,50144,21.06,74164.5,5.67,-2.51,0.05,0,*53
1497546412.71,50145,21.06,74166.3,5.67,-2.31,0.05,0,*54
1497546413.88,50146,21.06,74166.8,5.67,-2.27,0.05,0,*50
1497546415.11,50147,21.06,74170.0,5.67,-2.07,0.17,0,*60
1497546416.3,50148,21.06,74166.8,5.67,-1.63,0.67,0,*69
1497546417.49,50149,21.06,74166.5,5.67,-1.51,0.67,0,*69
1497546418.68,50150,21.06,74166.3,5.67,-1.51,0.67,0,*61
1497546419.87,50151,21.06,74164.5,5.67,-1.51,0.67,0,*60
1497546421.07,50152,21.06,74162.5,5.67,-1.33,0.91,0,*6E
1497546422.28,50153,21.06,74166.0,5.67,-1.33,0.91,0,*6F
1497546423.53,50154,21.0,74160.8,5.69,-1.13,1.17,0,*5B
1497546424.78,50155,21.06,74166.3,5.69,-0.97,1.33,0,*61
1497546426.03,50156,21.06,74164.5,5.69,-1.01,1.21,0,*5F
1497546427.28,50157,21.06,74162.0,5.69,-0.85,1.33,0,*60
1497546428.48,50158,21.06,74166.8,5.67,-0.27,1.83,0,*62
1497546429.66,50159,21.06,74160.5,5.69,0.01,1.83,0,*74
1497546430.89,50160,21.06,74160.0,5.69,0.21,1.89,0,*46
1497546432.13,50161,21.06,74162.5,5.69,0.59,2.17,0,*4C
1497546433.36,50162,21.06,74164.0,5.69,0.75,2.17,0,*41
1497546434.59,50163,21.06,74164.5,5.69,1.09,2.27,0,*79
1497546435.82,50164,21.06,74162.8,5.71,1.37,2.43,0,*78
1497546437.03,50165,21.06,74164.5,5.71,1.67,2.55,0,*7B
1497546438.21,50166,21.06,74164.0,5.71,1.83,2.61,0,*75
1497546439.45,50167,21.06,74164.5,5.73,2.01,2.69,0,*77
1497546440.7,50168,21.0,74162.5,5.73,2.01,2.47,0,*74
1497546441.87,50169,21.06,74164.0,5.71,2.27,2.65,0,*73
1497546443.12,50170,21.06,74166.8,5.73,2.09,2.43,0,*71
1497546444.34,50171,21.0,74164.3,5.73,2.13,2.31,0,*7E
1497546445.53,50172,21.06,74166.8,5.71,2.31,2.55,0,*7D
1497546446.78,50173,21.06,74170.0,5.73,2.13,2.13,0,*7C
1497546448.02,50174,21.06,74166.3,5.73,2.09,2.01,0,*73
1497546449.24,50175,21.0,74164.5,5.71,1.55,1.47,0,*7B
1497546450.48,50176,21.0,74166.3,5.73,1.59,1.51,0,*71
1497546451.69,50177,21.06,74168.5,5.71,1.47,1.43,0,*7E
1497546452.88,50178,21.0,74166.0,5.71,1.83,1.67,0,*7F
1497546454.12,50179,21.06,74170.5,5.69,1.59,1.43,0,*76
1497546455.34,50180,21.06,74172.3,5.67,1.43,1.21,0,*71
1497546456.54,50181,21.06,74168.0,5.67,1.41,1.13,0,*73
1497546457.74,50182,21.06,74170.8,5.63,1.97,1.83,0,*76
1497546458.98,50183,21.06,74168.8,5.61,2.13,2.09,0,*7B
1497546460.2,50184,21.0,74166.3,5.63,2.25,2.01,0,*73
1497546461.43,50185,21.06,74168.8,5.61,2.31,2.13,0,*76
1497546462.65,50186,21.06,74170.0,5.63,2.25,2.21,0,*73
1497546463.87,50187,21.06,74166.3,5.63,2.47,2.25,0,*72
1497546465.09,50188,21.06,74166.0,5.61,2.35,2.21,0,*7E
1497546466.31,50189,21.06,74160.5,5.63,2.69,2.43,0,*70
1497546467.5,50190,21.06,74160.0,5.63,2.61,2.55,0,*77
1497546468.72,50191,21.06,74160.0,5.63,2.73,2.69,0,*7A
1497546469.92,50192,21.06,74162.3,5.63,2.61,2.59,0,*79
1497546471.14,50193,21.06,74162.8,5.69,2.55,2.61,0,*7E
1497546472.37,50194,21.06,74160.3,5.67,2.59,2.73,0,*78
1497546473.59,50195,21.06,74166.8,5.69,2.65,2.81,0,*75
1497546474.84,50196,21.06,74164.0,5.69,2.69,2.89,0,*72
1497546476.06,50197,21.06,74166.3,5.69,2.55,2.65,0,*7E
1497546477.29,50198,21.06,74164.5,5.69,2.65,2.89,0,*70
1497546478.52,50199,21.06,74164.5,5.67,2.51,2.59,0,*75
1497546479.77,50200,21.0,74164.0,5.69,2.51,2.51,0,*70
1497546481.01,50201,21.06,74166.0,5.69,2.51,2.55,0,*75
1497546482.21,50202,21.0,74160.5,5.69,2.31,2.31,0,*72
1497546483.43,50203,21.06,74164.5,5.69,2.51,2.27,0,*72
1497546484.62,50204,21.0,74162.3,5.67,2.27,1.93,0,*76
1497546485.84,50205,21.06,74168.5,5.69,2.39,1.83,0,*77
1497546487.06,50206,21.06,74168.5,5.69,2.27,1.67,0,*71
1497546488.3,50207,21.06,74170.0,5.69,2.21,1.55,0,*77
1497546489.54,50208,21.06,74174.8,5.69,2.05,1.55,0,*7E
1497546490.79,50209,21.06,74170.3,5.69,1.97,1.55,0,*77
1497546492.03,50210,21.0,74170.5,5.69,1.71,1.43,0,*70
1497546493.22,50211,21.06,74172.8,5.71,1.79,1.47,0,*74
1497546494.43,50212,21.06,74170.5,5.71,1.89,1.71,0,*7D
1497546495.62,50213,21.0,74170.3,5.71,1.97,1.83,0,*7E
1497546496.87,50214,21.06,74170.5,5.73,2.09,2.09,0,*7E
1497546498.09,50215,21.06,74168.5,5.75,2.13,2.21,0,*78
1497546499.31,50216,21.06,74170.5,5.75,1.85,1.97,0,*79
1497546500.52,50217,21.06,74168.0,5.75,1.59,1.59,0,*7B
1497546501.72,50218,21.06,74170.5,5.75,1.71,1.83,0,*79
1497546502.95,50219,21.0,74166.0,5.75,1.85,1.97,0,*76
1497546504.16,50220,21.0,74168.8,5.77,1.79,1.97,0,*7D
1497546505.36,50221,21.06,74170.5,5.75,1.83,1.85,0,*78
1497546506.59,50222,21.0,74164.0,5.75,1.93,2.09,0,*7D
1497546507.8,50223,21.06,74166.8,5.75,2.21,2.25,0,*78
1497546509.0,50224,21.06,74168.0,5.75,2.35,2.43,0,*7A
1497546510.22,50225,21.0,74166.3,5.75,2.43,2.55,0,*7D
1497546511.42,50226,21.0,74168.0,5.75,2.55,2.35,0,*7F
1497546512.62,50227,21.0,74166.3,5.75,2.31,2.25,0,*7D
1497546513.84,50228,21.0,74166.5,5.77,2.47,2.27,0,*73
1497546515.05,50229,21.0,74166.3,5.75,2.13,1.93,0,*7D
1497546516.28,50230,21.06,74170.0,5.75,2.21,1.85,0,*73
1497546517.47,50231,21.0,74168.0,5.75,2.01,1.83,0,*76
1497546518.69,50232,21.0,74168.3,5.75,2.01,1.93,0,*74
1497546519.92,50233,21.0,74166.3,5.75,2.25,2.13,0,*78
1497546521.11,50234,21.06,74168.0,5.75,2.35,2.21,0,*7F
1497546522.3,50235,21.0,74168.0,5.75,2.31,2.21,0,*7A
1497546523.53,50236,21.0,74168.0,5.75,2.25,2.13,0,*7D
1497546524.75,50237,21.0,74164.8,5.75,2.25,2.13,0,*7C